• In Russia
  • List of Countries
  • For 7 days
  • Water Temperature
  • Weather Map
  • Weather Widgets
  • user-avatar
    Login

    Hourly Weather Baraki Barak

    Today, 18 August, Sunday

    Time Temperature Precipitation Wind Pressure Humidity
    00:00 +22°C° 0 mm 1 mps 597 mmHg 28%
    01:00 +21°C° 0 mm 1 mps 596 mmHg 31%
    02:00 +20°C° 0 mm 1 mps 596 mmHg 34%
    03:00 +20°C° 0 mm 1 mps 596 mmHg 34%
    04:00 +17°C° 0 mm 0 mps 595 mmHg 35%
    05:00 +16°C° 0 mm 0 mps 595 mmHg 34%
    06:00 +17°C° 0 mm 0 mps 596 mmHg 31%
    07:00 +19°C° 0 mm 0 mps 597 mmHg 29%
    08:00 +20°C° 0 mm 0 mps 597 mmHg 26%
    09:00 +23°C° 0 mm 1 mps 598 mmHg 23%
    10:00 +25°C° 0 mm 1 mps 598 mmHg 20%
    11:00 +26°C° 0 mm 1 mps 599 mmHg 16%
    12:00 +28°C° 0 mm 1 mps 599 mmHg 14%
    13:00 +29°C° 0 mm 2 mps 599 mmHg 11%
    14:00 +30°C° 0 mm 3 mps 599 mmHg 9%
    15:00 +30°C° 0 mm 3 mps 599 mmHg 9%
    16:00 +31°C° 0 mm 3 mps 599 mmHg 8%
    17:00 +31°C° 0 mm 3 mps 599 mmHg 8%
    18:00 +29°C° 0 mm 3 mps 599 mmHg 11%
    19:00 +27°C° 0 mm 3 mps 599 mmHg 13%
    20:00 +26°C° 0 mm 3 mps 599 mmHg 16%
    21:00 +24°C° 0 mm 3 mps 599 mmHg 19%
    22:00 +23°C° 0 mm 2 mps 599 mmHg 21%
    23:00 +21°C° 0 mm 2 mps 599 mmHg 24%

    Tomorrow, 19 August, Monday

    Time Temperature Precipitation Wind Pressure Humidity
    00:00 +22°C° 0 mm 1 mps 599 mmHg 25%
    01:00 +21°C° 0 mm 1 mps 598 mmHg 27%
    02:00 +20°C° 0 mm 1 mps 598 mmHg 28%
    03:00 +19°C° 0 mm 1 mps 598 mmHg 29%
    04:00 +17°C° 0 mm 0 mps 597 mmHg 30%
    05:00 +16°C° 0 mm 0 mps 597 mmHg 31%
    06:00 +17°C° 0 mm 0 mps 598 mmHg 29%
    07:00 +18°C° 0 mm 0 mps 599 mmHg 26%
    08:00 +20°C° 0 mm 0 mps 600 mmHg 24%
    09:00 +21°C° 0 mm 0 mps 600 mmHg 22%
    10:00 +24°C° 0 mm 1 mps 600 mmHg 21%
    11:00 +26°C° 0 mm 1 mps 600 mmHg 19%
    12:00 +27°C° 0 mm 1 mps 601 mmHg 17%
    13:00 +28°C° 0 mm 2 mps 601 mmHg 14%
    14:00 +30°C° 0 mm 2 mps 601 mmHg 12%
    15:00 +30°C° 0 mm 3 mps 601 mmHg 12%
    16:00 +30°C° 0 mm 3 mps 601 mmHg 12%
    17:00 +30°C° 0 mm 3 mps 601 mmHg 12%
    18:00 +29°C° 0 mm 3 mps 600 mmHg 16%
    19:00 +27°C° 0 mm 3 mps 600 mmHg 20%
    20:00 +26°C° 0 mm 3 mps 600 mmHg 23%
    21:00 +25°C° 0 mm 3 mps 600 mmHg 25%
    22:00 +24°C° 0 mm 2 mps 600 mmHg 27%
    23:00 +23°C° 0 mm 2 mps 600 mmHg 29%

    Day after tomorrow, 20 August, Tuesday

    Time Temperature Precipitation Wind Pressure Humidity
    00:00 +21°C° 0 mm 2 mps 599 mmHg 28%
    01:00 +21°C° 0 mm 1 mps 599 mmHg 27%
    02:00 +20°C° 0 mm 1 mps 599 mmHg 26%
    03:00 +19°C° 0 mm 1 mps 598 mmHg 27%
    04:00 +19°C° 0 mm 1 mps 598 mmHg 27%
    05:00 +18°C° 0 mm 1 mps 597 mmHg 27%
    06:00 +19°C° 0 mm 1 mps 598 mmHg 25%
    07:00 +20°C° 0 mm 1 mps 599 mmHg 22%
    08:00 +21°C° 0 mm 1 mps 600 mmHg 20%
    09:00 +23°C° 0 mm 1 mps 600 mmHg 17%
    10:00 +24°C° 0 mm 1 mps 600 mmHg 14%
    11:00 +26°C° 0 mm 1 mps 601 mmHg 11%
    12:00 +27°C° 0 mm 1 mps 601 mmHg 10%
    13:00 +28°C° 0 mm 1 mps 601 mmHg 8%
    14:00 +29°C° 0 mm 1 mps 601 mmHg 7%
    15:00 +30°C° 0 mm 2 mps 601 mmHg 6%
    16:00 +30°C° 0 mm 2 mps 600 mmHg 6%
    17:00 +30°C° 0 mm 2 mps 600 mmHg 5%
    18:00 +29°C° 0 mm 2 mps 600 mmHg 7%
    19:00 +27°C° 0 mm 2 mps 600 mmHg 8%
    20:00 +26°C° 0 mm 2 mps 599 mmHg 10%
    21:00 +24°C° 0 mm 2 mps 599 mmHg 13%
    22:00 +23°C° 0 mm 1 mps 599 mmHg 15%
    23:00 +22°C° 0 mm 1 mps 599 mmHg 18%

    21 August, Wednesday

    Time Temperature Precipitation Wind Pressure Humidity
    00:00 +21°C° 0 mm 1 mps 598 mmHg 19%
    01:00 +21°C° 0 mm 1 mps 598 mmHg 20%
    02:00 +20°C° 0 mm 1 mps 597 mmHg 22%
    03:00 +19°C° 0 mm 1 mps 597 mmHg 22%
    04:00 +18°C° 0 mm 1 mps 596 mmHg 22%
    05:00 +16°C° 0 mm 1 mps 596 mmHg 22%
    06:00 +19°C° 0 mm 1 mps 597 mmHg 19%
    07:00 +20°C° 0 mm 1 mps 597 mmHg 17%
    08:00 +22°C° 0 mm 1 mps 598 mmHg 15%
    09:00 +23°C° 0 mm 1 mps 599 mmHg 13%
    10:00 +25°C° 0 mm 1 mps 599 mmHg 12%
    11:00 +27°C° 0 mm 1 mps 600 mmHg 10%
    12:00 +28°C° 0 mm 1 mps 600 mmHg 9%
    13:00 +29°C° 0 mm 1 mps 600 mmHg 8%
    14:00 +30°C° 0 mm 1 mps 600 mmHg 6%
    15:00 +30°C° 0 mm 2 mps 600 mmHg 6%
    16:00 +31°C° 0 mm 2 mps 599 mmHg 6%
    17:00 +31°C° 0 mm 2 mps 599 mmHg 6%
    18:00 +29°C° 0 mm 2 mps 599 mmHg 8%
    19:00 +28°C° 0 mm 3 mps 599 mmHg 9%
    20:00 +26°C° 0 mm 3 mps 598 mmHg 11%
    21:00 +25°C° 0 mm 2 mps 598 mmHg 15%
    22:00 +24°C° 0 mm 1 mps 598 mmHg 19%
    23:00 +23°C° 0 mm 1 mps 598 mmHg 23%

    22 August, Thursday

    Time Temperature Precipitation Wind Pressure Humidity
    00:00 +22°C° 0 mm 1 mps 597 mmHg 25%
    01:00 +21°C° 0 mm 1 mps 597 mmHg 27%
    02:00 +21°C° 0 mm 1 mps 597 mmHg 29%
    03:00 +20°C° 0 mm 1 mps 596 mmHg 30%
    04:00 +19°C° 0 mm 1 mps 596 mmHg 30%
    05:00 +16°C° 0 mm 0 mps 596 mmHg 30%
    06:00 +18°C° 0 mm 0 mps 596 mmHg 27%
    07:00 +21°C° 0 mm 1 mps 597 mmHg 23%
    08:00 +23°C° 0 mm 1 mps 598 mmHg 20%
    09:00 +24°C° 0 mm 1 mps 599 mmHg 18%
    10:00 +26°C° 0 mm 1 mps 599 mmHg 15%
    11:00 +28°C° 0 mm 1 mps 599 mmHg 13%
    12:00 +29°C° 0 mm 1 mps 599 mmHg 11%
    13:00 +30°C° 0 mm 1 mps 599 mmHg 10%
    14:00 +31°C° 0 mm 2 mps 599 mmHg 8%
    15:00 +32°C° 0 mm 2 mps 599 mmHg 8%
    16:00 +33°C° 0 mm 3 mps 599 mmHg 8%
    17:00 +33°C° 0 mm 3 mps 599 mmHg 8%
    18:00 +30°C° 0 mm 3 mps 599 mmHg 11%
    19:00 +28°C° 0 mm 3 mps 598 mmHg 14%
    20:00 +27°C° 0 mm 3 mps 598 mmHg 17%
    21:00 +26°C° 0 mm 2 mps 598 mmHg 21%
    22:00 +25°C° 0 mm 2 mps 598 mmHg 24%
    23:00 +24°C° 0 mm 2 mps 598 mmHg 28%

    23 August, Friday

    Time Temperature Precipitation Wind Pressure Humidity
    00:00 +23°C° 0 mm 1 mps 598 mmHg 29%
    01:00 +22°C° 0 mm 1 mps 597 mmHg 29%
    02:00 +22°C° 0 mm 1 mps 597 mmHg 30%
    03:00 +21°C° 0 mm 1 mps 597 mmHg 30%
    04:00 +20°C° 0 mm 1 mps 596 mmHg 29%
    05:00 +17°C° 0 mm 0 mps 596 mmHg 29%
    06:00 +20°C° 0 mm 1 mps 597 mmHg 26%
    07:00 +22°C° 0 mm 1 mps 598 mmHg 23%
    08:00 +23°C° 0 mm 1 mps 599 mmHg 21%
    09:00 +25°C° 0 mm 1 mps 599 mmHg 18%
    10:00 +26°C° 0 mm 1 mps 600 mmHg 15%
    11:00 +28°C° 0 mm 1 mps 600 mmHg 13%
    12:00 +29°C° 0 mm 1 mps 600 mmHg 11%
    13:00 +31°C° 0 mm 1 mps 600 mmHg 10%
    14:00 +32°C° 0 mm 2 mps 600 mmHg 8%
    15:00 +33°C° 0 mm 3 mps 600 mmHg 8%
    16:00 +33°C° 0 mm 4 mps 600 mmHg 8%
    17:00 +33°C° 0 mm 5 mps 600 mmHg 8%
    18:00 +30°C° 0 mm 5 mps 600 mmHg 10%
    19:00 +28°C° 0 mm 4 mps 599 mmHg 12%
    20:00 +26°C° 0 mm 3 mps 599 mmHg 14%
    21:00 +25°C° 0 mm 2 mps 599 mmHg 16%
    22:00 +24°C° 0 mm 2 mps 599 mmHg 17%
    23:00 +23°C° 0 mm 1 mps 599 mmHg 19%
    Show more